COSMOS 2543 (44835 NORAD) Tracking and Keplerian Element Data

This shows tracking and keplerian element data for the satellite.

Feedback or suggestion? Click here.




ElementValue
Catalog44835
NameCOSMOS 2543
Epoch Orbit687
Epoch Day22.6891933
Epoch Year2020
RAAN84.9221
Inclination97.8924
Eccentricity0.0191717
Argument of Perigee138.8207
Mean Anonmoly222.7636
Mean Motion14.50359951
Decay Rate-6.5E-07
L11 44835U 19079D 20022.68919330 -.00000065 00000-0 -32380-5 0 9999
L22 44835 97.8924 84.9221 0191717 138.8207 222.7636 14.50359951 6877

Live tracking and technical data element details for COSMOS 2543 (NORAD 44835). COSMOS 2543 can be tracked NOW for your location showing map with azimuth and elevation plus other details from your city location.

Track the satellite on the map from your city or location and see movement details for azimuth, elevation, latitude, longitude, range, height, and movement on the map or in text.







IsCatalogInMostPopularTable: catalog: 44835, numindb: 10
Update: records affected: 1



GetName: 44835 COSMOS 2543

Hit Count: updated at: Fri, 24 Jan 2020 13:27:09 GMT